Location: Arbon
(43.0005°N, 0.7472°E)
Time: 18:22:46
(UTC+00:00)

Courier 1B Rocket - Pass Details

Date: 27 November 2020
Orbit: 920 x 1202 km, 28.2° (Epoch: 21 January)

Event Time Altitude Azimuth Distance (km) Brightness Sun altitude
Rises 09:36:53 0° 253° (WSW) 4,021 8.1 19.3°
Reaches altitude 10° 09:40:31 10° 239° (WSW) 3,017 7.6 19.7°
Maximum altitude 09:45:45 21° 193° (SSW) 2,237 7.8 20.2°
Drops below altitude 10° 09:50:47 10° 147° (SSE) 2,866 9.7 20.6°
Sets 09:54:07 0° 132° (SE) 3,765 9.3 20.9°
